Flag for U.S.A. Weather past 2 weeks in Aurora, Illinois, U.S.A.

Now
69 °F

Fog.


Feels Like: 69 °F
Forecast: 69 / 89 °F
Wind: No wind

Location: Dupage Airport

Current Time: Sep 5, 2015 at 3:24:38 AM

Latest Report: Sep 5, 2015 at 2:52 AM


Visibility: 6 mi

Pressure: 30.03 "Hg

Humidity: 90%

Dew point: 66 °F

Location of AuroraLocation

Historic Weather in Aurora — Graph

°F

Aurora temperature yesterday

Maximum temperature yesterday: 89 °F (at 3:52 PM)
Minimum temperature yesterday: 66 °F (at 5:52 AM)
Average temperature yesterday: 76 °F

Past Weeks' High & Low Weather Summary

 TemperatureHumidityPressure
High89 °F (Sep 3, 1:52 PM)96% (Aug 31, 5:00 AM)30.22 "Hg (Aug 31, 5:00 AM)
Low47 °F (Aug 27, 5:52 AM)41% (Aug 24, 12:52 PM)29.82 "Hg (Aug 23, 6:52 AM)
Average69 °F74%30.02 "Hg
* Reported Aug 21 1:52 AM — Sep 5 1:52 AM, Aurora, Weather by CustomWeather, © 2015

Note: Actual official high and low records may vary slightly from our data, if they occured in-between our weather recording intervals... More about our weather records

Advertising

Aurora weather history for previous 24 hours

 ConditionsComfort  
Time TempWeatherWind HumidityBarometerVisibility
1:52 AM
Sat, Sep 5
71 °FClear.No wind84%30.03 "Hg7 mi
12:52 AM70 °FPassing clouds.3 mph84%30.03 "Hg8 mi
11:52 PM
Fri, Sep 4
71 °FPassing clouds.5 mph84%30.03 "Hg8 mi
10:52 PM71 °FClear.5 mph84%30.03 "Hg9 mi
9:52 PM72 °FClear.5 mph81%30.04 "Hg9 mi
8:52 PM73 °FClear.7 mph79%30.03 "Hg10 mi
7:52 PM75 °FSunny.7 mph74%30.01 "Hg10 mi
6:52 PM79 °FSunny.10 mph67%30.00 "Hg10 mi
5:52 PM82 °FSunny.10 mph63%29.98 "Hg10 mi
4:52 PM88 °FPassing clouds.3 mph55%29.97 "Hg10 mi
3:52 PM89 °FPartly sunny.6 mph53%29.97 "Hg10 mi
2:52 PM86 °FSunny.No wind59%29.98 "Hg10 mi
1:52 PM85 °FScattered clouds.No wind61%29.98 "Hg10 mi
12:52 PM84 °FPartly sunny.No wind63%30.00 "Hg10 mi
11:52 AM83 °FSunny.3 mph65%30.01 "Hg10 mi
10:52 AM80 °FPartly sunny.No wind67%30.02 "Hg10 mi
9:52 AM76 °FPartly sunny.3 mph74%30.01 "Hg10 mi
8:52 AM73 °FPartly sunny.5 mph79%30.00 "Hg10 mi
7:52 AM71 °FScattered clouds.No wind87%29.99 "Hg7 mi
6:52 AM67 °FFog.No wind90%29.98 "Hg6 mi
5:52 AM66 °FClear.No wind93%29.97 "Hg8 mi
4:52 AM67 °FClear.No wind90%29.96 "Hg9 mi
3:52 AM67 °FClear.6 mph90%29.95 "Hg10 mi
Weather by CustomWeather, © 2015

See weather overviewHow to use our weather pages